When you browse on this site, cookies collect data to enhance your experience and personalize the content and advertising you see.
Visit our Privacy Policy to learn more. By continuing to use the site, you agree to this use of cookies and data.
  • In Lithuania
  • List of Countries
  • For 7 days
  • Water Temperature
  • Satellite Maps
  • Weather Map
  • Weather Widgets
  • user-avatar
    Login

    Hourly Weather Pisarevo

    Today, 22 July, Monday

    Time Temperature Precipitation Wind Pressure Humidity
    00:00 +16°C° 0 mm 2 mps 746 mmHg 90%
    01:00 +16°C° 0 mm 2 mps 746 mmHg 90%
    02:00 +15°C° 0 mm 2 mps 746 mmHg 91%
    03:00 +15°C° 0 mm 2 mps 747 mmHg 92%
    04:00 +15°C° 0 mm 1 mps 747 mmHg 91%
    05:00 +15°C° 0 mm 1 mps 747 mmHg 91%
    06:00 +16°C° 0 mm 1 mps 747 mmHg 91%
    07:00 +18°C° 0 mm 1 mps 747 mmHg 86%
    08:00 +20°C° 0 mm 1 mps 747 mmHg 81%
    09:00 +21°C° 0 mm 1 mps 747 mmHg 75%
    10:00 +22°C° 0.1 mm 1 mps 746 mmHg 70%
    11:00 +23°C° 0.1 mm 1 mps 746 mmHg 65%
    12:00 +25°C° 0.1 mm 1 mps 746 mmHg 59%
    13:00 +25°C° 0.2 mm 1 mps 746 mmHg 58%
    14:00 +25°C° 0.2 mm 1 mps 746 mmHg 57%
    15:00 +25°C° 0.2 mm 2 mps 745 mmHg 56%
    16:00 +25°C° 0 mm 2 mps 745 mmHg 59%
    17:00 +25°C° 0 mm 2 mps 745 mmHg 62%
    18:00 +25°C° 0 mm 2 mps 745 mmHg 65%
    19:00 +23°C° 0 mm 1 mps 745 mmHg 70%
    20:00 +22°C° 0 mm 1 mps 745 mmHg 76%
    21:00 +20°C° 0 mm 1 mps 744 mmHg 81%
    22:00 +19°C° 0 mm 1 mps 744 mmHg 81%
    23:00 +19°C° 0 mm 1 mps 744 mmHg 81%

    Tomorrow, 23 July, Tuesday

    Time Temperature Precipitation Wind Pressure Humidity
    00:00 +19°C° 0 mm 1 mps 744 mmHg 81%
    01:00 +19°C° 0.1 mm 1 mps 744 mmHg 83%
    02:00 +17°C° 0.1 mm 2 mps 743 mmHg 84%
    03:00 +17°C° 0.1 mm 2 mps 743 mmHg 85%
    04:00 +18°C° 0.4 mm 1 mps 743 mmHg 87%
    05:00 +18°C° 0.4 mm 1 mps 743 mmHg 89%
    06:00 +18°C° 0.4 mm 1 mps 743 mmHg 91%
    07:00 +17°C° 0.4 mm 2 mps 742 mmHg 92%
    08:00 +17°C° 0.4 mm 2 mps 742 mmHg 92%
    09:00 +17°C° 0.4 mm 3 mps 742 mmHg 92%
    10:00 +19°C° 0.2 mm 4 mps 742 mmHg 88%
    11:00 +21°C° 0.2 mm 4 mps 742 mmHg 83%
    12:00 +22°C° 0.2 mm 5 mps 742 mmHg 78%
    13:00 +23°C° 0.9 mm 4 mps 742 mmHg 77%
    14:00 +23°C° 0.9 mm 4 mps 742 mmHg 76%
    15:00 +23°C° 0.9 mm 4 mps 741 mmHg 76%
    16:00 +24°C° 0.3 mm 3 mps 741 mmHg 77%
    17:00 +24°C° 0.3 mm 2 mps 741 mmHg 79%
    18:00 +24°C° 0.3 mm 2 mps 741 mmHg 80%
    19:00 +21°C° 0.2 mm 2 mps 741 mmHg 83%
    20:00 +21°C° 0.2 mm 1 mps 741 mmHg 86%
    21:00 +20°C° 0.2 mm 1 mps 741 mmHg 89%
    22:00 +19°C° 1 mm 1 mps 741 mmHg 91%
    23:00 +19°C° 1 mm 1 mps 741 mmHg 93%

    Day after tomorrow, 24 July, Wednesday

    Time Temperature Precipitation Wind Pressure Humidity
    00:00 +17°C° 1 mm 2 mps 741 mmHg 95%
    01:00 +17°C° 1 mm 2 mps 741 mmHg 96%
    02:00 +17°C° 1 mm 2 mps 741 mmHg 97%
    03:00 +17°C° 1 mm 2 mps 741 mmHg 98%
    04:00 +17°C° 1.5 mm 2 mps 741 mmHg 98%
    05:00 +17°C° 1.5 mm 2 mps 741 mmHg 98%
    06:00 +17°C° 1.5 mm 2 mps 741 mmHg 98%
    07:00 +18°C° 0.5 mm 2 mps 741 mmHg 96%
    08:00 +18°C° 0.5 mm 3 mps 741 mmHg 93%
    09:00 +19°C° 0.5 mm 3 mps 741 mmHg 91%
    10:00 +20°C° 0.4 mm 3 mps 741 mmHg 87%
    11:00 +21°C° 0.4 mm 3 mps 741 mmHg 82%
    12:00 +22°C° 0.4 mm 3 mps 741 mmHg 78%
    13:00 +21°C° 0.2 mm 4 mps 741 mmHg 79%
    14:00 +21°C° 0.2 mm 4 mps 741 mmHg 80%
    15:00 +20°C° 0.2 mm 4 mps 741 mmHg 81%
    16:00 +20°C° 0.5 mm 3 mps 741 mmHg 85%
    17:00 +19°C° 0.5 mm 2 mps 741 mmHg 90%
    18:00 +19°C° 0.5 mm 1 mps 741 mmHg 94%
    19:00 +18°C° 2.2 mm 1 mps 741 mmHg 95%
    20:00 +18°C° 2.2 mm 1 mps 741 mmHg 96%
    21:00 +16°C° 2.2 mm 2 mps 741 mmHg 97%
    22:00 +16°C° 0.6 mm 2 mps 741 mmHg 97%
    23:00 +17°C° 0.6 mm 2 mps 741 mmHg 98%

    25 July, Thursday

    Time Temperature Precipitation Wind Pressure Humidity
    00:00 +17°C° 0.6 mm 2 mps 741 mmHg 98%
    01:00 +17°C° 0.3 mm 2 mps 741 mmHg 98%
    02:00 +17°C° 0.3 mm 2 mps 741 mmHg 98%
    03:00 +17°C° 0.3 mm 2 mps 741 mmHg 98%
    04:00 +17°C° 0.1 mm 2 mps 741 mmHg 98%
    05:00 +17°C° 0.1 mm 2 mps 741 mmHg 98%
    06:00 +17°C° 0.1 mm 2 mps 742 mmHg 98%
    07:00 +17°C° 1.5 mm 3 mps 742 mmHg 97%
    08:00 +17°C° 1.5 mm 3 mps 742 mmHg 97%
    09:00 +18°C° 1.5 mm 4 mps 742 mmHg 96%
    10:00 +18°C° 0.6 mm 4 mps 742 mmHg 95%
    11:00 +18°C° 0.6 mm 4 mps 742 mmHg 94%
    12:00 +18°C° 0.6 mm 4 mps 742 mmHg 93%
    13:00 +18°C° 0.6 mm 4 mps 742 mmHg 93%
    14:00 +18°C° 0.6 mm 4 mps 742 mmHg 93%
    15:00 +18°C° 0.6 mm 4 mps 742 mmHg 93%
    16:00 +18°C° 0.1 mm 4 mps 742 mmHg 93%
    17:00 +17°C° 0.1 mm 5 mps 742 mmHg 92%
    18:00 +17°C° 0.1 mm 5 mps 742 mmHg 92%
    19:00 +18°C° 0.1 mm 4 mps 742 mmHg 93%
    20:00 +17°C° 0.1 mm 3 mps 742 mmHg 95%
    21:00 +17°C° 0.1 mm 3 mps 742 mmHg 97%
    22:00 +17°C° 0 mm 3 mps 742 mmHg 96%
    23:00 +17°C° 0 mm 3 mps 743 mmHg 95%

    26 July, Friday

    Time Temperature Precipitation Wind Pressure Humidity
    00:00 +17°C° 0 mm 4 mps 743 mmHg 94%
    01:00 +17°C° 0 mm 4 mps 742 mmHg 95%
    02:00 +17°C° 0 mm 4 mps 742 mmHg 96%
    03:00 +17°C° 0 mm 4 mps 742 mmHg 97%
    04:00 +17°C° 0 mm 4 mps 742 mmHg 96%
    05:00 +17°C° 0 mm 4 mps 742 mmHg 96%
    06:00 +18°C° 0 mm 4 mps 742 mmHg 95%
    07:00 +18°C° 0.1 mm 4 mps 742 mmHg 94%
    08:00 +19°C° 0.1 mm 4 mps 742 mmHg 92%
    09:00 +19°C° 0.1 mm 4 mps 742 mmHg 90%
    10:00 +20°C° 0.2 mm 3 mps 742 mmHg 89%
    11:00 +21°C° 0.2 mm 2 mps 742 mmHg 87%
    12:00 +22°C° 0.2 mm 1 mps 742 mmHg 86%
    13:00 +23°C° 0.6 mm 2 mps 742 mmHg 82%
    14:00 +24°C° 0.6 mm 3 mps 742 mmHg 79%
    15:00 +25°C° 0.6 mm 4 mps 742 mmHg 76%
    16:00 +24°C° 0.9 mm 3 mps 742 mmHg 80%
    17:00 +23°C° 0.9 mm 2 mps 741 mmHg 83%
    18:00 +21°C° 0.9 mm 2 mps 741 mmHg 87%
    19:00 +20°C° 0 mm 2 mps 741 mmHg 88%
    20:00 +20°C° 0 mm 2 mps 741 mmHg 89%
    21:00 +19°C° 0 mm 2 mps 741 mmHg 91%
    22:00 +19°C° 0.3 mm 2 mps 741 mmHg 91%
    23:00 +19°C° 0.3 mm 2 mps 741 mmHg 92%

    27 July, Saturday

    Time Temperature Precipitation Wind Pressure Humidity
    00:00 +18°C° 0.3 mm 2 mps 741 mmHg 93%
    01:00 +18°C° 0 mm 2 mps 741 mmHg 94%
    02:00 +18°C° 0 mm 2 mps 741 mmHg 94%
    03:00 +17°C° 0 mm 2 mps 741 mmHg 95%
    04:00 +17°C° 0 mm 3 mps 741 mmHg 96%
    05:00 +18°C° 0 mm 3 mps 741 mmHg 96%
    06:00 +18°C° 0 mm 3 mps 741 mmHg 96%
    07:00 +19°C° 0.2 mm 4 mps 741 mmHg 93%
    08:00 +20°C° 0.2 mm 4 mps 741 mmHg 89%
    09:00 +22°C° 0.2 mm 4 mps 741 mmHg 85%
    10:00 +23°C° 1 mm 5 mps 741 mmHg 82%
    11:00 +25°C° 1 mm 5 mps 741 mmHg 79%
    12:00 +24°C° 1 mm 6 mps 741 mmHg 76%
    13:00 +26°C° 0.9 mm 5 mps 740 mmHg 74%
    14:00 +26°C° 0.9 mm 5 mps 740 mmHg 73%
    15:00 +26°C° 0.9 mm 5 mps 740 mmHg 71%
    16:00 +26°C° 1 mm 5 mps 740 mmHg 74%
    17:00 +26°C° 1 mm 4 mps 740 mmHg 77%
    18:00 +25°C° 1 mm 4 mps 740 mmHg 80%
    19:00 +23°C° 0.3 mm 4 mps 740 mmHg 83%
    20:00 +22°C° 0.3 mm 3 mps 740 mmHg 86%
    21:00 +21°C° 0.3 mm 3 mps 740 mmHg 88%
    22:00 +20°C° 0 mm 4 mps 740 mmHg 90%
    23:00 +19°C° 0 mm 4 mps 740 mmHg 92%
    Show more